Hourly Data Report for April 24, 2017

KUGAARUK CLIMATE
NUNAVUT

68°32'15.060" N
89°47'47.020" W
15.80 m
2303094
71407
NBB

Download Data

Hourly Data (April 2017)
Hourly Data Report for April 24, 2017
TIME
LST
Temp Definition
°C
Dew Point Definition
°C
Rel Hum Definition
%
Precip. Amount Definition
mm

Wind Dir Definition
10's deg

Wind Spd Definition
km/h
Visibility Definition
km
Stn Press Definition
kPa
Hmdx Definition


Wind Chill Definition


Weather Definition


00:00 -18.7 -21.1 81 0.0 25 21   102.32   -29 LegendNANA
01:00 -19.0 -21.7 79 0.0 24 24   102.35   -30 LegendNANA
02:00 -20.2 -22.7 80 0.0 25 22   102.37   -31 LegendNANA
03:00 -20.8 -24.0 75 0.0 23 19   102.42   -31 LegendNANA
04:00 -20.9 -24.3 74 0.0 25 21   102.42   -32 LegendNANA
05:00 -20.4 -23.9 74 0.2 25 17   102.41   -30 LegendNANA
06:00 -20.4 -24.0 73 0.0 26 22   102.41   -31 LegendNANA
07:00 -20.6 -24.2 72 0.0 25 22   102.41   -32 LegendNANA
08:00 -21.1 -24.6 73 0.0 24 30   102.37   -34 LegendNANA
09:00 -19.8 -23.2 74 0.0 25 27   102.34   -32 LegendNANA
10:00 -19.4 -23.8 68 0.0 26 25   102.32   -31 LegendNANA
11:00 -18.9 -23.2 69 0.0 26 24   102.31   -30 LegendNANA
12:00 -18.5 -23.5 64 0.0 27 22   102.30   -29 LegendNANA
13:00 -18.3 -23.1 66 0.0 27 22   102.27   -29 LegendNANA
14:00 -18.7 -23.5 66 0.0 26 28   102.26   -31 LegendNANA
15:00 -19.6 -24.2 67 0.0 26 31   102.26   -32 LegendNANA
16:00 -19.6 -23.8 69 0.0 25 26   102.24   -31 LegendNANA
17:00 -19.9 -23.7 72 0.0 25 22   102.22   -31 LegendNANA
18:00 -20.3 -23.9 73 0.0 25 24   102.22   -32 LegendNANA
19:00 -20.4 -23.5 76 0.0 25 25   102.19   -32 LegendNANA
20:00 -20.4 -23.4 77 0.0 24 19   102.21   -31 LegendNANA
21:00 -20.6 -23.5 77 0.0 25 22   102.19   -32 LegendNANA
22:00 -20.7 -23.5 78 0.0 23 20   102.19   -31 LegendNANA
23:00 -20.5 -23.1 80 0.0 23 28   102.13   -33 LegendNANA

Notes on Data Quality.

Legend

  • E = Estimated
  • M = Missing
  • NA = Not Available*
  • [empty] = Indicates an unobserved value
Date modified: